Fort Wainwright, AK (99703)

7:55 PM AKDT on April 25, 2018 (GMT -0800)
Ladd Army Air Field | | Change Station

Elev 453 ft 64.84 °N, 147.62 °W | Updated 57 minutes ago

Mostly Cloudy
Mostly Cloudy
45 °F
Feels Like 38 °F
N
13
Wind Variable Wind from SSW

Today
High -- | Low -- °F
--% Chance of Precip.
Yesterday
High -- | Low -- °F
Precip. -- in
Pressure 29.90 in
Visibility 10.0 miles
Clouds Few 7000 ft
Mostly Cloudy 8500 ft
Windchill 38 °F
Dew Point 25 °F
Humidity 46%
Rainfall 0.00 in
Snow Depth Not available.
5:38 AM 10:00 PM
Waxing Gibbous, 84% visible
METAR PAFB 260258Z AUTO 21011KT 10SM FEW070 BKN085 07/M04 A2988 RMK AO2 SLP124 T00701040 52007 $
Pressure 29.90 in
Visibility 10.0 miles
Clouds Few 7000 ft
Mostly Cloudy 8500 ft
Windchill 38 °F
Dew Point 25 °F
Humidity 46%
Rainfall 0.00 in
Snow Depth Not available.
5:38 AM 10:00 PM
Waxing Gibbous, 84% visible
METAR PAFB 260258Z AUTO 21011KT 10SM FEW070 BKN085 07/M04 A2988 RMK AO2 SLP124 T00701040 52007 $

Get Severe Weather Alerts

Thanks for signing up!

Be on the lookout for a verification email in your inbox.

You'll start receiving the daily forecast at 6 AM.

×

10-Day Weather Forecast

Almanac

Astronomy

Apr. 25, 2018 Rise Set
Actual Time
Civil Twilight
Nautical Twilight
Astronomical Twilight
Moon
Length of Visible Light
Length of Day
Tomorrow will be .
, % of the Moon is Illuminated

Today's Extremes

State Highs State Lows

Community

WunderPhotos

Category 6

Welcome to Category 6. This is the collective home for Weather Underground's featured writeups by Dr. Jeff Masters (right), Bob Henson (left), Chris Burt, and other regular contributors.

Nearby

Air Quality

  Air Quality AQ Index Pollutant
Not available.

Snow Depth

Station Depth Elevation

Earthquake Activity

City Distance Mag. Time & Date
Minimum magnitude displayed is 2.5.

Coastal Water Temperatures

Place Temperature

Stations

Nearby Weather Stations

Station Location Temp. Windchill Dew Point Humidity Wind Precip. Elev Updated Type
                   

Watches & Warnings

There are currently no watches in effect.